Flag for Germany Weather past 2 weeks in Paderborn, North Rhine-Westphalia, Germany

Now
52 °F

Sunny.


Feels Like: 49 °F
Forecast: 48 / 55 °F
Wind: 7 mph from South

Location: Paderborn / Lippstadt

Current Time: Oct 24, 2014 at 6:35:22 PM

Latest Report: Oct 24, 2014 at 6:20 PM


Visibility: 10 mi

Pressure: 30.09 "Hg

Humidity: 72%

Dew point: 43 °F

Location of PaderbornLocation

Historic Weather in Paderborn — Graph

°F

Paderborn temperature yesterday

Maximum temperature yesterday: 52 °F (at 2:50 PM)
Minimum temperature yesterday: 45 °F (at 3:50 AM)
Average temperature yesterday: 48 °F

Past Weeks' High & Low Weather Summary

 TemperatureHumidityPressure
High72 °F (Oct 19, 1:20 PM)100% (Oct 10, 8:50 PM)30.24 "Hg (Oct 10, 8:50 PM)
Low43 °F (Oct 22, 3:50 AM)52% (Oct 14, 2:20 PM)29.47 "Hg (Oct 21, 5:20 PM)
Average55 °F80%29.91 "Hg
* Reported Oct 9 5:20 PM — Oct 24 5:20 PM, Paderborn, Weather by CustomWeather, © 2014

Note: Actual official high and low records may vary slightly from our data, if they occured in-between our weather recording intervals... More about our weather records

Advertising

Paderborn weather history for previous 24 hours

 ConditionsComfort  
Time TempWeatherWind HumidityBarometerVisibility
5:20 PM
Oct 24
54 °FScattered clouds.6 mph67%30.09 "HgN/A
4:50 PM54 °FScattered clouds.3 mph63%30.09 "HgN/A
4:20 PM54 °FScattered clouds.1 mph63%30.09 "HgN/A
3:50 PM54 °FScattered clouds.2 mph63%30.12 "HgN/A
3:20 PM55 °FScattered clouds.5 mph59%30.12 "HgN/A
2:50 PM57 °FScattered clouds.6 mph55%30.12 "HgN/A
2:20 PM55 °FScattered clouds.6 mph59%30.12 "HgN/A
1:50 PM55 °FScattered clouds.7 mph59%30.12 "HgN/A
1:20 PM55 °FScattered clouds.8 mph59%30.15 "HgN/A
12:50 PM54 °FScattered clouds.5 mph63%30.15 "HgN/A
12:20 PM54 °FScattered clouds.6 mph67%30.15 "HgN/A
11:50 AM54 °FScattered clouds.6 mph67%30.18 "HgN/A
11:20 AM52 °FScattered clouds.8 mph72%30.18 "HgN/A
10:50 AM52 °FScattered clouds.8 mph72%30.18 "HgN/A
10:20 AM50 °FScattered clouds.7 mph76%30.18 "HgN/A
9:50 AM50 °FScattered clouds.8 mph76%30.18 "HgN/A
9:20 AM50 °FScattered clouds.6 mph82%30.18 "HgN/A
8:50 AM50 °FPassing clouds.3 mph82%30.18 "HgN/A
8:20 AM50 °FPassing clouds.3 mph82%30.18 "HgN/A
7:50 AM50 °FPartly cloudy.2 mph76%30.18 "HgN/A
7:20 AM50 °FPartly cloudy.5 mph82%30.18 "HgN/A
6:50 AM50 °FPartly cloudy.7 mph82%30.18 "HgN/A
6:20 AM50 °FPartly cloudy.8 mph82%30.18 "HgN/A
5:50 AM50 °FPassing clouds.8 mph82%30.18 "HgN/A
5:20 AM50 °FPassing clouds.9 mph82%30.18 "HgN/A
4:50 AM50 °FPassing clouds.8 mph82%30.18 "HgN/A
4:20 AM50 °FPassing clouds.9 mph82%30.18 "HgN/A
3:50 AM50 °FPassing clouds.9 mph82%30.18 "HgN/A
3:20 AM50 °FPassing clouds.9 mph82%30.18 "HgN/A
11:50 PM
Oct 23
50 °FPassing clouds.7 mph82%30.21 "HgN/A
11:20 PM50 °FPassing clouds.9 mph82%30.21 "HgN/A
10:50 PM50 °FPassing clouds.8 mph82%30.21 "HgN/A
10:20 PM50 °FPassing clouds.8 mph82%30.21 "HgN/A
9:50 PM50 °FPassing clouds.9 mph82%30.21 "HgN/A
9:20 PM50 °FPassing clouds.8 mph82%30.21 "HgN/A
8:50 PM50 °FPassing clouds.9 mph82%30.21 "HgN/A
8:20 PM50 °FPassing clouds.7 mph82%30.21 "HgN/A
7:50 PM50 °FPassing clouds.7 mph82%30.21 "HgN/A
7:20 PM50 °FPassing clouds.6 mph82%30.21 "HgN/A
6:50 PM50 °FBroken clouds.7 mph82%30.21 "Hg6 mi
6:20 PM50 °FBroken clouds.7 mph82%30.21 "Hg6 mi
Weather by CustomWeather, © 2014

See weather overviewHow to use our weather pages